Project,Study,Ord_Occ,Event_Num,Cast_ID,Date_Time_UTC,Date_Time_PST,Lat_Dec,Lon_Dec,Sta_ID,Line,Sta,Depth,Pressure,PrQ,Temp1,Temp1Q,Temp2,Temp2Q,TempAve,Salt1,Salt1Q,Salt1_Corr,Salt2,Salt2Q,Salt2_Corr,SaltAve_Corr,Ox1,Ox1Q,Ox1_CruiseCorr,Ox1_StaCorr,Ox2,Ox2Q,Ox2_CruiseCorr,Ox2_StaCorr,OxAve_StaCorr,Ox1uM,Ox1uM_CruiseCorr,Ox1uM_StaCorr,Ox2uM,Ox2uM_CruiseCorr,Ox2uM_StaCorr,OxAveuM_StaCorr,FluorV,FluorQ,EstChl_CruiseCorr,EstChl_StaCorr,ISUSV,ISUSQ,EstNO3_CruiseCorr,EstNO3_StaCorr,SigThetaTS1,SigThetaTS1Q,SigThetaTS2,SigThetaTS2Q,BAT,XMiss,TransQ,pH,pHQ,SPAR,SPARQ,PAR,PARQ,PoT1,PoT2,DynHt,SVA,OxSat1,OxSat2,BTL_Depth,BTL_Temp,SaltB,OxB,OxBuM,Chl-a,Phaeo,NO3,NO2,NH4,PO4,SIL
CalCOFI,2101RL,023,,2101_023d,21-Jan-2021 13:21:01,21-Jan-2021 05:21:01,32.09008,-120.63740,090.0 070.0,090.0,070.0,3.000,3.021,,15.0966,,15.0975,,15.0971,33.4693,,33.4751,33.4591,,33.4611,33.4681,5.4582,,5.7125,5.8046,,,,,,237.871,249.2636,253.1876,,,,,0.0973,,0.5491,0.2534, ,, , ,24.7711,,24.7630,,0.7742,82.4111,,,,3.5009E+00,,9.2545E-01,,15.0961,15.0970,0.0044,316.651,95.169,,3,,33.4649,5.699,248.55,0.356,0.144,,,,,
CalCOFI,2101RL,023,,2101_023d,21-Jan-2021 13:21:07,21-Jan-2021 05:21:07,32.09006,-120.63740,090.0 070.0,090.0,070.0,4.000,4.028,,15.0953,,15.0961,,15.0957,33.4694,,33.4752,33.4643,,33.4663,33.4708,5.4529,,5.7069,5.7990,,,,,,237.639,249.0207,252.9402,,,,,0.0971,,0.5474,0.2527, ,, , ,24.7715,,24.7674,,0.7631,82.6321,,,,3.6012E+00,,8.6642E-01,,15.0947,15.0955,0.0089,316.648,95.073,,,,,,,,,,,,,
CalCOFI,2101RL,023,,2101_023d,21-Jan-2021 13:21:11,21-Jan-2021 05:21:11,32.09004,-120.63740,090.0 070.0,090.0,070.0,5.000,5.035,,15.0962,,15.0967,,15.0965,33.4694,,33.4752,33.4651,,33.4671,33.4712,5.4590,,5.7133,5.8055,,,,,,237.904,249.2981,253.2228,,,,,0.1025,,0.5917,0.2711, ,, , ,24.7714,,24.7679,,0.7593,82.7102,,,,3.6280E+00,,8.3664E-01,,15.0954,15.0959,0.0122,316.692,95.181,,,,,,,,,,,,,
CalCOFI,2101RL,023,,2101_023d,21-Jan-2021 13:21:13,21-Jan-2021 05:21:13,32.09006,-120.63738,090.0 070.0,090.0,070.0,6.000,6.042,,15.0974,,15.0980,,15.0977,33.4695,,33.4753,33.4652,,33.4672,33.4713,5.4658,,5.7204,5.8128,,,,,,238.201,249.6090,253.5395,,,,,0.0978,,0.5532,0.2551, ,, , ,24.7712,,24.7678,,0.7592,82.7133,,,,3.3335E+00,,8.2904E-01,,15.0965,15.0971,0.0154,316.738,95.302,,,,,,,,,,,,,
CalCOFI,2101RL,023,,2101_023d,21-Jan-2021 13:21:15,21-Jan-2021 05:21:15,32.09006,-120.63738,090.0 070.0,090.0,070.0,7.000,7.049,,15.0981,,15.0987,,15.0984,33.4696,,33.4754,33.4654,,33.4674,33.4714,5.4492,,5.7030,5.7951,,,,,,237.479,248.8532,252.7696,,,,,0.0999,,0.5704,0.2622, ,, , ,24.7711,,24.7678,,0.7591,82.7150,,,,3.4769E+00,,8.1544E-01,,15.0971,15.0977,0.0186,316.775,95.015,,,,,,,,,,,,,
CalCOFI,2101RL,023,,2101_023d,21-Jan-2021 13:21:18,21-Jan-2021 05:21:18,32.09006,-120.63738,090.0 070.0,090.0,070.0,8.000,8.056,,15.0990,,15.0992,,15.0991,33.4695,,33.4753,33.4653,,33.4673,33.4713,5.4520,,5.7060,5.7980,,,,,,237.602,248.9820,252.9008,,,,,0.0965,,0.5425,0.2507, ,, , ,24.7709,,24.7676,,0.7600,82.6959,,,,3.3030E+00,,7.9897E-01,,15.0978,15.0980,0.0217,316.831,95.066,,,,,,,,,,,,,
CalCOFI,2101RL,023,,2101_023d,21-Jan-2021 13:21:20,21-Jan-2021 05:21:20,32.09006,-120.63738,090.0 070.0,090.0,070.0,9.000,9.063,,15.0998,,15.0999,,15.0999,33.4695,,33.4753,33.4653,,33.4673,33.4713,5.4581,,5.7123,5.8045,,,,,,237.867,249.2594,253.1834,,,,,0.0974,,0.5499,0.2537, ,, , ,24.7707,,24.7675,,0.7609,82.6774,,,,3.5692E+00,,7.8872E-01,,15.0985,15.0986,0.0249,316.873,95.173,,,,,,,,,,,,,
CalCOFI,2101RL,023,,2101_023d,21-Jan-2021 13:21:22,21-Jan-2021 05:21:22,32.09006,-120.63738,090.0 070.0,090.0,070.0,10.000,10.070,,15.1002,,15.1004,,15.1003,33.4692,,33.4750,33.4651,,33.4671,33.4711,5.4517,,5.7056,5.7977,,,,,,237.587,248.9663,252.8848,,,,,0.1205,,0.7392,0.3323, ,, , ,24.7705,,24.7672,,0.7610,82.6757,,,,3.5974E+00,,7.7548E-01,,15.0987,15.0989,0.0281,316.928,95.062,,10,,33.4615,5.701,248.61,0.366,0.138,,,,,
CalCOFI,2101RL,023,,2101_023d,21-Jan-2021 13:21:25,21-Jan-2021 05:21:25,32.09006,-120.63738,090.0 070.0,090.0,070.0,11.000,11.078,,15.1002,,15.1005,,15.1004,33.4692,,33.4750,33.4651,,33.4671,33.4711,5.4534,,5.7074,5.7995,5.4024,,5.7359,5.8862,5.8429,237.663,249.0458,252.9658,235.442,264.7374,256.7460,254.8559,0.1016,,0.5843,0.2680, ,, , ,24.7705,,24.7673,,0.7614,82.6671,,,,3.5564E+00,,7.5655E-01,,15.0986,15.0989,0.0313,316.955,95.092,94.201,,,,,,,,,,,,
CalCOFI,2101RL,023,,2101_023d,21-Jan-2021 13:21:27,21-Jan-2021 05:21:27,32.09004,-120.63738,090.0 070.0,090.0,070.0,12.000,12.085,,15.1004,,15.1008,,15.1006,33.4693,,33.4751,33.4651,,33.4671,33.4711,5.4629,,5.7174,5.8097,5.3989,,5.7322,5.8823,5.8460,238.076,249.4782,253.4062,235.286,265.1966,256.5740,254.9901,0.0976,,0.5515,0.2544, ,, , ,24.7705,,24.7672,,0.7619,82.6567,,,,3.5186E+00,,7.4746E-01,,15.0986,15.0990,0.0345,316.984,95.258,94.139,,,,,,,,,,,,
CalCOFI,2101RL,023,,2101_023d,21-Jan-2021 13:21:28,21-Jan-2021 05:21:28,32.09004,-120.63738,090.0 070.0,090.0,070.0,13.000,13.092,,15.1008,,15.1014,,15.1011,33.4692,,33.4750,33.4651,,33.4671,33.4711,5.4603,,5.7146,5.8069,5.4079,,5.7417,5.8922,5.8496,237.964,249.3609,253.2868,235.678,265.0721,257.0063,255.1466,0.0974,,0.5499,0.2537, ,, , ,24.7704,,24.7672,,0.7627,82.6406,,,,3.6922E+00,,7.4219E-01,,15.0989,15.0994,0.0377,317.026,95.214,94.298,,,,,,,,,,,,
CalCOFI,2101RL,023,,2101_023d,21-Jan-2021 13:21:30,21-Jan-2021 05:21:30,32.09004,-120.63738,090.0 070.0,090.0,070.0,14.000,14.099,,15.1011,,15.1017,,15.1014,33.4692,,33.4750,33.4651,,33.4671,33.4711,5.4587,,5.7130,5.8052,5.3996,,5.7329,5.8831,5.8442,237.894,249.2876,253.2122,235.318,264.9943,256.6093,254.9108,0.0971,,0.5474,0.2527, ,, , ,24.7704,,24.7671,,0.7602,82.6922,,,,3.5834E+00,,7.2391E-01,,15.0990,15.0996,0.0409,317.058,95.186,94.154,,,,,,,,,,,,
CalCOFI,2101RL,023,,2101_023d,21-Jan-2021 13:21:33,21-Jan-2021 05:21:33,32.09004,-120.63738,090.0 070.0,090.0,070.0,15.000,15.106,,15.1016,,15.1019,,15.1018,33.4692,,33.4750,33.4651,,33.4671,33.4711,5.4597,,5.7140,5.8062,5.3946,,5.7276,5.8776,5.8419,237.935,249.3306,253.2559,235.099,265.0399,256.3677,254.8118,0.1039,,0.6032,0.2759, ,, , ,24.7703,,24.7671,,0.7610,82.6753,,,,3.6945E+00,,7.1291E-01,,15.0993,15.0996,0.0441,317.096,95.204,94.067,,,,,,,,,,,,
CalCOFI,2101RL,023,,2101_023d,21-Jan-2021 13:21:35,21-Jan-2021 05:21:35,32.09003,-120.63737,090.0 070.0,090.0,070.0,16.000,16.113,,15.1013,,15.1015,,15.1014,33.4692,,33.4750,33.4651,,33.4671,33.4711,5.4671,,5.7218,5.8141,5.3973,,5.7305,5.8805,5.8473,238.258,249.6687,253.6003,235.219,265.3990,256.5001,255.0502,0.1033,,0.5983,0.2738, ,, , ,24.7704,,24.7672,,0.7607,82.6821,,,,3.3373E+00,,7.0249E-01,,15.0989,15.0991,0.0473,317.115,95.332,94.114,,,,,,,,,,,,
CalCOFI,2101RL,023,,2101_023d,21-Jan-2021 13:21:37,21-Jan-2021 05:21:37,32.09002,-120.63736,090.0 070.0,090.0,070.0,17.000,17.120,,15.1010,,15.1013,,15.1012,33.4693,,33.4751,33.4651,,33.4671,33.4711,5.4639,,5.7184,5.8107,5.4032,,5.7367,5.8870,5.8489,238.120,249.5242,253.4532,235.476,265.2456,256.7835,255.1184,0.0982,,0.5565,0.2565, ,, , ,24.7706,,24.7673,,0.7619,82.6562,,,,3.6824E+00,,6.9833E-01,,15.0984,15.0987,0.0505,317.133,95.277,94.217,,,,,,,,,,,,
CalCOFI,2101RL,023,,2101_023d,21-Jan-2021 13:21:42,21-Jan-2021 05:21:42,32.09000,-120.63736,090.0 070.0,090.0,070.0,18.000,18.127,,15.1004,,15.1008,,15.1006,33.4693,,33.4751,33.4652,,33.4672,33.4712,5.4610,,5.7154,5.8076,5.3974,,5.7306,5.8806,5.8441,237.993,249.3913,253.3177,235.220,265.1043,256.5012,254.9095,0.1034,,0.5991,0.2742, ,, , ,24.7708,,24.7675,,0.7611,82.6743,,,,3.6846E+00,,6.7050E-01,,15.0977,15.0981,0.0537,317.148,95.224,94.113,,,,,,,,,,,,
CalCOFI,2101RL,023,,2101_023d,21-Jan-2021 13:21:48,21-Jan-2021 05:21:48,32.09000,-120.63736,090.0 070.0,090.0,070.0,19.000,19.134,,15.1005,,15.1009,,15.1007,33.4691,,33.4749,33.4650,,33.4670,33.4710,5.4643,,5.7188,5.8112,5.3964,,5.7295,5.8795,5.8454,238.138,249.5431,253.4724,235.179,265.2656,256.4560,254.9642,0.1039,,0.6032,0.2759, ,, , ,24.7706,,24.7673,,0.7617,82.6616,,,,3.6032E+00,,6.4310E-01,,15.0977,15.0980,0.0569,317.192,95.283,94.097,,,,,,,,,,,,
CalCOFI,2101RL,023,,2101_023d,21-Jan-2021 13:21:53,21-Jan-2021 05:21:53,32.08998,-120.63734,090.0 070.0,090.0,070.0,20.000,20.141,,15.1012,,15.1018,,15.1015,33.4688,,33.4746,33.4648,,33.4668,33.4707,5.4476,,5.7014,5.7934,5.4052,,5.7389,5.8892,5.8413,237.408,248.7789,252.6939,235.562,264.4538,256.8784,254.7862,0.1074,,0.6318,0.2878, ,, , ,24.7703,,24.7671,,0.7618,82.6581,,,,3.6777E+00,,6.1583E-01,,15.0982,15.0988,0.0601,317.255,94.992,94.252,20,,33.4616,5.705,248.79,0.366,0.137,,,,,
CalCOFI,2101RL,023,,2101_023d,21-Jan-2021 13:21:55,21-Jan-2021 05:21:55,32.08998,-120.63734,090.0 070.0,090.0,070.0,21.000,21.149,,15.0992,,15.1014,,15.1003,33.4685,,33.4743,33.4647,,33.4667,33.4705,5.4560,,5.7101,5.8023,5.3946,,5.7276,5.8776,5.8400,237.775,249.1631,253.0853,235.102,264.8619,256.3710,254.7282,0.1097,,0.6507,0.2956, ,, , ,24.7705,,24.7671,,0.7639,82.6156,,,,3.3984E+00,,6.0888E-01,,15.0961,15.0983,0.0633,317.264,95.135,94.067,,,,,,,,,,,,
CalCOFI,2101RL,023,,2101_023d,21-Jan-2021 13:21:59,21-Jan-2021 05:21:59,32.08998,-120.63734,090.0 070.0,090.0,070.0,22.000,22.156,,15.1018,,15.1014,,15.1016,33.4691,,33.4749,33.4649,,33.4669,33.4709,5.4482,,5.7020,5.7940,5.3718,,5.7034,5.8524,5.8232,237.436,248.8082,252.7237,234.108,264.4850,255.2748,253.9993,0.1131,,0.6786,0.3071, ,, , ,24.7705,,24.7673,,0.7633,82.6267,,,,3.5878E+00,,5.8964E-01,,15.0984,15.0981,0.0665,317.299,95.004,93.669,,,,,,,,,,,,
CalCOFI,2101RL,023,,2101_023d,21-Jan-2021 13:22:02,21-Jan-2021 05:22:02,32.08998,-120.63734,090.0 070.0,090.0,070.0,23.000,23.163,,15.1019,,15.1023,,15.1021,33.4691,,33.4749,33.4649,,33.4669,33.4709,5.4641,,5.7186,5.8109,5.3741,,5.7058,5.8550,5.8330,238.129,249.5336,253.4628,234.205,265.2556,255.3818,254.4223,0.1030,,0.5958,0.2728, ,, , ,24.7705,,24.7671,,0.7640,82.6124,,,,3.6977E+00,,5.7363E-01,,15.0985,15.0988,0.0697,317.328,95.282,93.709,,,,,,,,,,,,
CalCOFI,2101RL,023,,2101_023d,21-Jan-2021 13:22:03,21-Jan-2021 05:22:03,32.08998,-120.63734,090.0 070.0,090.0,070.0,24.000,24.170,,15.1024,,15.1028,,15.1026,33.4695,,33.4753,33.4653,,33.4673,33.4713,5.4566,,5.7108,5.8029,5.3882,,5.7208,5.8705,5.8367,237.801,249.1903,253.1130,234.822,264.8908,256.0623,254.5877,0.1098,,0.6515,0.2959, ,, , ,24.7707,,24.7674,,0.7641,82.6116,,,,3.6947E+00,,5.6868E-01,,15.0987,15.0992,0.0728,317.340,95.152,93.958,,,,,,,,,,,,
CalCOFI,2101RL,023,,2101_023d,21-Jan-2021 13:22:06,21-Jan-2021 05:22:06,32.08996,-120.63734,090.0 070.0,090.0,070.0,25.000,25.177,,15.1019,,15.1025,,15.1022,33.4693,,33.4751,33.4653,,33.4673,33.4712,5.4511,,5.7050,5.7971,5.3774,,5.7093,5.8586,5.8279,237.560,248.9380,252.8560,234.349,264.6228,255.5406,254.1983,0.1047,,0.6097,0.2786, ,, , ,24.7707,,24.7674,,0.7635,82.6239,,,,3.4099E+00,,5.6058E-01,,15.0981,15.0987,0.0760,317.368,95.054,93.768,,,,,,,,,,,,
CalCOFI,2101RL,023,,2101_023d,21-Jan-2021 13:22:09,21-Jan-2021 05:22:09,32.08996,-120.63734,090.0 070.0,090.0,070.0,26.000,26.184,,15.1014,,15.1017,,15.1016,33.4691,,33.4749,33.4650,,33.4670,33.4710,5.4541,,5.7082,5.8003,5.3698,,5.7013,5.8502,5.8253,237.694,249.0783,252.9989,234.019,264.7719,255.1767,254.0878,0.0976,,0.5515,0.2544, ,, , ,24.7706,,24.7674,,0.7626,82.6416,,,,3.7102E+00,,5.4935E-01,,15.0975,15.0978,0.0792,317.402,95.107,93.634,,,,,,,,,,,,
CalCOFI,2101RL,023,,2101_023d,21-Jan-2021 13:22:10,21-Jan-2021 05:22:10,32.08996,-120.63734,090.0 070.0,090.0,070.0,27.000,27.191,,15.0972,,15.0986,,15.0979,33.4680,,33.4738,33.4640,,33.4660,33.4699,5.4443,,5.6979,5.7898,5.3794,,5.7115,5.8608,5.8253,237.264,248.6282,252.5403,234.437,264.2937,255.6376,254.0890,0.0980,,0.5548,0.2558, ,, , ,24.7707,,24.7674,,0.7642,82.6088,,,,3.6947E+00,,5.4397E-01,,15.0931,15.0945,0.0824,317.424,94.926,93.795,,,,,,,,,,,,
CalCOFI,2101RL,023,,2101_023d,21-Jan-2021 13:22:11,21-Jan-2021 05:22:11,32.08995,-120.63734,090.0 070.0,090.0,070.0,28.000,28.199,,15.0951,,15.0946,,15.0949,33.4675,,33.4733,33.4634,,33.4654,33.4694,5.4439,,5.6975,5.7894,5.3936,,5.7265,5.8765,5.8330,237.248,248.6114,252.5233,235.057,264.2759,256.3214,254.4224,0.1015,,0.5835,0.2677, ,, , ,24.7709,,24.7678,,0.7653,82.5877,,,,3.6947E+00,,5.3983E-01,,15.0909,15.0903,0.0856,317.440,94.915,94.035,,,,,,,,,,,,
CalCOFI,2101RL,023,,2101_023d,21-Jan-2021 13:22:15,21-Jan-2021 05:22:15,32.08994,-120.63734,090.0 070.0,090.0,070.0,29.000,29.206,,15.0963,,15.0965,,15.0964,33.4677,,33.4735,33.4636,,33.4656,33.4696,5.4313,,5.6843,5.7760,5.3838,,5.7161,5.8656,5.8208,236.701,248.0388,251.9399,234.630,263.6676,255.8505,253.8952,0.1066,,0.6253,0.2850, ,, , ,24.7708,,24.7676,,0.7650,82.5925,,,,3.6053E+00,,5.2903E-01,,15.0920,15.0922,0.0888,317.481,94.699,93.868,,,,,,,,,,,,
CalCOFI,2101RL,023,,2101_023d,21-Jan-2021 13:22:17,21-Jan-2021 05:22:17,32.08994,-120.63734,090.0 070.0,090.0,070.0,30.000,30.213,,15.0959,,15.0962,,15.0961,33.4678,,33.4736,33.4636,,33.4656,33.4696,5.4401,,5.6935,5.7854,5.3833,,5.7156,5.8651,5.8253,237.083,248.4387,252.3473,234.608,264.0924,255.8262,254.0868,0.1037,,0.6015,0.2752, ,, , ,24.7710,,24.7677,,0.7661,82.5708,,,,3.6967E+00,,5.2239E-01,,15.0914,15.0917,0.0920,317.494,94.851,93.859,,,,,,,,,,,,
CalCOFI,2101RL,023,,2101_023d,21-Jan-2021 13:22:18,21-Jan-2021 05:22:18,32.08994,-120.63734,090.0 070.0,090.0,070.0,31.000,31.220,,15.0946,,15.0937,,15.0942,33.4675,,33.4733,33.4634,,33.4654,33.4694,5.4497,,5.7036,5.7956,5.3703,,5.7018,5.8508,5.8232,237.502,248.8773,252.7941,234.042,264.5583,255.2020,253.9981,0.1091,,0.6458,0.2935, ,, , ,24.7711,,24.7681,,0.7667,82.5571,,,,3.6947E+00,,5.1185E-01,,15.0900,15.0891,0.0952,317.512,95.016,93.628,,,,,,,,,,,,
CalCOFI,2101RL,023,,2101_023d,21-Jan-2021 13:22:20,21-Jan-2021 05:22:20,32.08994,-120.63732,090.0 070.0,090.0,070.0,32.000,32.227,,15.0915,,15.0919,,15.0917,33.4672,,33.4730,33.4632,,33.4652,33.4691,5.4467,,5.7004,5.7924,5.3714,,5.7030,5.8520,5.8222,237.371,248.7402,252.6544,234.091,264.4127,255.2561,253.9553,0.1109,,0.6605,0.2997, ,, , ,24.7715,,24.7683,,0.7681,82.5287,,,,3.6947E+00,,5.1143E-01,,15.0867,15.0871,0.0984,317.499,94.958,93.644,,,,,,,,,,,,
CalCOFI,2101RL,023,,2101_023d,21-Jan-2021 13:22:22,21-Jan-2021 05:22:22,32.08994,-120.63732,090.0 070.0,090.0,070.0,33.000,33.234,,15.0937,,15.0941,,15.0939,33.4674,,33.4732,33.4633,,33.4653,33.4693,5.4408,,5.6942,5.7861,5.3748,,5.7066,5.8557,5.8209,237.114,248.4711,252.3804,234.236,264.1269,255.4160,253.8982,0.1056,,0.6171,0.2816, ,, , ,24.7712,,24.7680,,0.7668,82.5550,,,,3.6947E+00,,5.0078E-01,,15.0887,15.0892,0.1016,317.560,94.859,93.706,,,,,,,,,,,,
CalCOFI,2101RL,023,,2101_023d,21-Jan-2021 13:22:25,21-Jan-2021 05:22:25,32.08994,-120.63732,090.0 070.0,090.0,070.0,34.000,34.242,,15.0929,,15.0932,,15.0931,33.4673,,33.4731,33.4633,,33.4653,33.4692,5.4486,,5.7024,5.7944,5.3666,,5.6979,5.8467,5.8206,237.454,248.8270,252.7429,233.881,264.5050,255.0245,253.8837,0.1107,,0.6589,0.2990, ,, , ,24.7713,,24.7682,,0.7670,82.5519,,,,3.6947E+00,,4.8996E-01,,15.0878,15.0881,0.1048,317.580,94.994,93.562,,,,,,,,,,,,
CalCOFI,2101RL,023,,2101_023d,21-Jan-2021 13:22:27,21-Jan-2021 05:22:27,32.08994,-120.63732,090.0 070.0,090.0,070.0,35.000,35.249,,15.0901,,15.0912,,15.0907,33.4672,,33.4730,33.4631,,33.4651,33.4691,5.4523,,5.7063,5.7984,5.3817,,5.7139,5.8633,5.8309,237.613,248.9935,252.9125,234.539,264.6818,255.7501,254.3313,0.1113,,0.6638,0.3010, ,, , ,24.7719,,24.7686,,0.7681,82.5278,,,,3.6545E+00,,4.7772E-01,,15.0848,15.0859,0.1080,317.554,95.052,93.822,,,,,,,,,,,,
CalCOFI,2101RL,023,,2101_023d,21-Jan-2021 13:22:29,21-Jan-2021 05:22:29,32.08992,-120.63732,090.0 070.0,090.0,070.0,36.000,36.256,,15.0898,,15.0899,,15.0899,33.4673,,33.4731,33.4632,,33.4652,33.4692,5.4596,,5.7139,5.8061,5.3702,,5.7017,5.8507,5.8284,237.933,249.3285,253.2537,234.038,265.0376,255.1976,254.2257,0.1111,,0.6622,0.3003, ,, , ,24.7721,,24.7689,,0.7669,82.5541,,,,3.5576E+00,,4.7337E-01,,15.0843,15.0845,0.1112,317.570,95.179,93.619,,,,,,,,,,,,
CalCOFI,2101RL,023,,2101_023d,21-Jan-2021 13:22:31,21-Jan-2021 05:22:31,32.08992,-120.63732,090.0 070.0,090.0,070.0,37.000,37.263,,15.0899,,15.0903,,15.0901,33.4673,,33.4731,33.4632,,33.4652,33.4692,5.4319,,5.6849,5.7766,5.3565,,5.6871,5.8356,5.8061,236.723,248.0618,251.9634,233.438,263.6921,254.5359,253.2497,0.1156,,0.6990,0.3157, ,, , ,24.7721,,24.7689,,0.7684,82.5223,,,,3.3001E+00,,4.6959E-01,,15.0843,15.0847,0.1144,317.596,94.696,93.380,,,,,,,,,,,,
CalCOFI,2101RL,023,,2101_023d,21-Jan-2021 13:22:33,21-Jan-2021 05:22:33,32.08992,-120.63732,090.0 070.0,090.0,070.0,38.000,38.270,,15.0894,,15.0904,,15.0899,33.4670,,33.4728,33.4632,,33.4652,33.4690,5.4241,,5.6768,5.7683,5.3562,,5.6868,5.8352,5.8018,236.384,247.7070,251.6019,233.426,263.3151,254.5227,253.0623,0.1096,,0.6499,0.2952, ,, , ,24.7720,,24.7689,,0.7675,82.5409,,,,3.7077E+00,,4.6454E-01,,15.0837,15.0846,0.1176,317.637,94.559,93.375,,,,,,,,,,,,
CalCOFI,2101RL,023,,2101_023d,21-Jan-2021 13:22:34,21-Jan-2021 05:22:34,32.08992,-120.63732,090.0 070.0,090.0,070.0,39.000,39.278,,15.0781,,15.0770,,15.0776,33.4660,,33.4718,33.4621,,33.4641,33.4680,5.4505,,5.7044,5.7964,5.3675,,5.6988,5.8477,5.8221,237.533,248.9097,252.8272,233.917,264.5928,255.0642,253.9457,0.1110,,0.6613,0.3000, ,, , ,24.7738,,24.7710,,0.7691,82.5077,,,,3.6947E+00,,4.5722E-01,,15.0722,15.0711,0.1208,317.501,94.997,93.546,,,,,,,,,,,,
CalCOFI,2101RL,023,,2101_023d,21-Jan-2021 13:22:36,21-Jan-2021 05:22:36,32.08992,-120.63732,090.0 070.0,090.0,070.0,40.000,40.285,,15.0811,,15.0809,,15.0810,33.4661,,33.4719,33.4623,,33.4643,33.4681,5.4386,,5.6919,5.7838,5.3675,,5.6988,5.8477,5.8158,237.016,248.3685,252.2758,233.920,264.0179,255.0675,253.6717,0.1109,,0.6605,0.2997, ,, , ,24.7732,,24.7703,,0.7691,82.5076,,,,3.6713E+00,,4.4617E-01,,15.0750,15.0749,0.1240,317.584,94.796,93.554,,,,,,,,,,,,
CalCOFI,2101RL,023,,2101_023d,21-Jan-2021 13:22:39,21-Jan-2021 05:22:39,32.08988,-120.63732,090.0 070.0,090.0,070.0,41.000,41.292,,15.0780,,15.0777,,15.0779,33.4660,,33.4718,33.4619,,33.4639,33.4679,5.4502,,5.7041,5.7961,5.3614,,5.6923,5.8410,5.8186,237.521,248.8972,252.8144,233.654,264.5795,254.7741,253.7943,0.1074,,0.6318,0.2878, ,, , ,24.7738,,24.7708,,0.7669,82.5526,,,,3.6243E+00,,4.3667E-01,,15.0718,15.0715,0.1272,317.554,94.992,93.442,,,,,,,,,,,,
CalCOFI,2101RL,023,,2101_023d,21-Jan-2021 13:22:41,21-Jan-2021 05:22:41,32.08988,-120.63731,090.0 070.0,090.0,070.0,42.000,42.299,,15.0794,,15.0803,,15.0799,33.4661,,33.4719,33.4621,,33.4641,33.4680,5.4380,,5.6913,5.7831,5.3540,,5.6845,5.8328,5.8080,236.991,248.3424,252.2492,233.330,263.9901,254.4168,253.3330,0.1082,,0.6384,0.2905, ,, , ,24.7736,,24.7704,,0.7677,82.5367,,,,3.6933E+00,,4.2978E-01,,15.0730,15.0740,0.1304,317.606,94.782,93.318,,,,,,,,,,,,
CalCOFI,2101RL,023,,2101_023d,21-Jan-2021 13:22:43,21-Jan-2021 05:22:43,32.08988,-120.63730,090.0 070.0,090.0,070.0,43.000,43.307,,15.0730,,15.0724,,15.0727,33.4657,,33.4715,33.4617,,33.4637,33.4676,5.4291,,5.6820,5.7736,5.3620,,5.6930,5.8416,5.8076,236.603,247.9362,251.8354,233.679,263.5586,254.8017,253.3186,0.1090,,0.6450,0.2932, ,, , ,24.7748,,24.7718,,0.7682,82.5256,,,,3.6947E+00,,4.3101E-01,,15.0666,15.0659,0.1336,317.526,94.615,93.442,,,,,,,,,,,,
CalCOFI,2101RL,023,,2101_023d,21-Jan-2021 13:22:45,21-Jan-2021 05:22:45,32.08986,-120.63732,090.0 070.0,090.0,070.0,44.000,44.314,,15.0604,,15.0602,,15.0603,33.4646,,33.4704,33.4605,,33.4625,33.4665,5.4269,,5.6797,5.7713,5.3426,,5.6724,5.8202,5.7958,236.505,247.8336,251.7309,232.834,263.4497,253.8698,252.8004,0.1148,,0.6925,0.3129, ,, , ,24.7767,,24.7736,,0.7700,82.4896,,,,3.6947E+00,,4.1216E-01,,15.0538,15.0536,0.1368,317.373,94.552,93.081,,,,,,,,,,,,
CalCOFI,2101RL,023,,2101_023d,21-Jan-2021 13:22:46,21-Jan-2021 05:22:46,32.08986,-120.63732,090.0 070.0,090.0,070.0,45.000,45.321,,15.0604,,15.0549,,15.0577,33.4647,,33.4705,33.4602,,33.4622,33.4664,5.4255,,5.6782,5.7698,5.3313,,5.6604,5.8078,5.7888,236.444,247.7698,251.6659,232.339,263.3818,253.3239,252.4949,0.1089,,0.6441,0.2929, ,, , ,24.7768,,24.7745,,0.7687,82.5152,,,,3.6947E+00,,4.1232E-01,,15.0537,15.0481,0.1400,317.396,94.528,92.873,,,,,,,,,,,,
CalCOFI,2101RL,023,,2101_023d,21-Jan-2021 13:22:48,21-Jan-2021 05:22:48,32.08986,-120.63732,090.0 070.0,090.0,070.0,46.000,46.328,,15.0461,,15.0459,,15.0460,33.4641,,33.4699,33.4602,,33.4622,33.4661,5.4148,,5.6670,5.7584,5.3395,,5.6691,5.8168,5.7876,235.979,247.2830,251.1700,232.696,262.8647,253.7176,252.4438,0.1114,,0.6646,0.3014, ,, , ,24.7795,,24.7765,,0.7683,82.5243,,,,3.6617E+00,,4.0595E-01,,15.0392,15.0390,0.1432,317.167,94.315,93.000,,,,,,,,,,,,
CalCOFI,2101RL,023,,2101_023d,21-Jan-2021 13:22:51,21-Jan-2021 05:22:51,32.08985,-120.63733,090.0 070.0,090.0,070.0,47.000,47.336,,15.0400,,15.0339,,15.0370,33.4635,,33.4693,33.4594,,33.4614,33.4654,5.3963,,5.6477,5.7387,5.3295,,5.6585,5.8058,5.7723,235.171,246.4372,250.3083,232.259,261.9662,253.2357,251.7720,0.1144,,0.6892,0.3116, ,, , ,24.7804,,24.7785,,0.7686,82.5176,,,,3.7030E+00,,4.0706E-01,,15.0329,15.0268,0.1464,317.110,93.980,92.802,,,,,,,,,,,,
CalCOFI,2101RL,023,,2101_023d,21-Jan-2021 13:22:52,21-Jan-2021 05:22:52,32.08984,-120.63734,090.0 070.0,090.0,070.0,48.000,48.343,,15.0036,,15.0054,,15.0045,33.4593,,33.4651,33.4557,,33.4577,33.4614,5.4085,,5.6604,5.7517,5.3252,,5.6539,5.8010,5.7764,235.703,246.9941,250.8757,232.072,262.5578,253.0294,251.9526,0.1105,,0.6572,0.2983, ,, , ,24.7850,,24.7819,,0.7695,82.4994,,,,3.6947E+00,,4.0006E-01,,14.9964,14.9982,0.1496,316.697,94.122,92.673,,,,,,,,,,,,
CalCOFI,2101RL,023,,2101_023d,21-Jan-2021 13:22:55,21-Jan-2021 05:22:55,32.08984,-120.63734,090.0 070.0,090.0,070.0,49.000,49.350,,14.9883,,14.9876,,14.9880,33.4578,,33.4636,33.4542,,33.4562,33.4599,5.3961,,5.6475,5.7385,5.3231,,5.6517,5.7987,5.7686,235.160,246.4257,250.2966,231.982,261.9540,252.9302,251.6134,0.1109,,0.6605,0.2997, ,, , ,24.7873,,24.7847,,0.7691,82.5070,,,,3.6789E+00,,3.8559E-01,,14.9810,14.9803,0.1528,316.513,93.876,92.604,,,,,,,,,,,,
CalCOFI,2101RL,023,,2101_023d,21-Jan-2021 13:22:58,21-Jan-2021 05:22:58,32.08982,-120.63734,090.0 070.0,090.0,070.0,50.000,50.357,,14.9741,,14.9634,,14.9688,33.4554,,33.4612,33.4505,,33.4525,33.4569,5.3454,,5.5944,5.6844,5.2751,,5.6007,5.7458,5.7151,232.952,244.1144,247.9420,229.888,259.4987,250.6208,249.2814,0.1094,,0.6482,0.2946, ,, , ,24.7886,,24.7871,,0.7701,82.4875,,,,3.6973E+00,,3.7386E-01,,14.9666,14.9559,0.1560,316.419,92.967,91.722,50,,33.4657,5.693,248.27,0.014,0.580,,,,,
CalCOFI,2101RL,023,,2101_023d,21-Jan-2021 13:22:59,21-Jan-2021 05:22:59,32.08982,-120.63734,090.0 070.0,090.0,070.0,51.000,51.365,,14.9110,,14.9104,,14.9107,33.4490,,33.4548,33.4451,,33.4471,33.4510,5.3504,,5.5996,5.6897,5.2696,,5.5948,5.7398,5.7148,233.168,244.3405,248.1723,229.647,259.7389,250.3550,249.2637,0.1110,,0.6613,0.3000, ,, , ,24.7973,,24.7944,,0.7709,82.4716,,,,3.6947E+00,,3.6959E-01,,14.9034,14.9027,0.1591,315.615,92.933,91.526,,,,,,,,,,,,
CalCOFI,2101RL,023,,2101_023d,21-Jan-2021 13:23:00,21-Jan-2021 05:23:00,32.08982,-120.63734,090.0 070.0,090.0,070.0,52.000,52.372,,14.8879,,14.8877,,14.8878,33.4468,,33.4526,33.4430,,33.4450,33.4488,5.3515,,5.6008,5.6909,5.2705,,5.5958,5.7407,5.7158,233.214,244.3886,248.2214,229.684,259.7900,250.3958,249.3086,0.1103,,0.6556,0.2976, ,, , ,24.8006,,24.7977,,0.7701,82.4864,,,,3.6947E+00,,3.6373E-01,,14.8801,14.8800,0.1623,315.325,92.908,91.499,,,,,,,,,,,,
CalCOFI,2101RL,023,,2101_023d,21-Jan-2021 13:23:02,21-Jan-2021 05:23:02,32.08982,-120.63734,090.0 070.0,090.0,070.0,53.000,53.379,,14.8565,,14.8543,,14.8554,33.4456,,33.4514,33.4418,,33.4438,33.4476,5.3262,,5.5743,5.6639,5.2630,,5.5878,5.7325,5.6982,232.112,243.2350,247.0462,229.355,258.5646,250.0330,248.5396,0.1140,,0.6859,0.3102, ,, , ,24.8065,,24.8040,,0.7709,82.4713,,,,3.4747E+00,,3.6318E-01,,14.8486,14.8464,0.1655,314.791,92.411,91.307,,,,,,,,,,,,